Weather in Poselye

Russia / Republic of Buryatia     50°36′50″N   107°53′40″E
temp.,
°C
wind,
m/s
gust,
m/s
humid.,
%
clouds,
%
prec.,
mm/h
press.,
hPa
HPBL,
m
26 january, tue
tue2623:00−21w41196100 0.2 1030719
02:00−20w51193100 0.3 1031928
05:00−21w51191100 0.1 1031803
08:00−22w41091100 0.1 1032472
11:00−20w5118598 0.0 1032784
14:00−19wnw598284 0.0 1030808
17:00−21w369147 0.0 1031199
20:00−26sw228923 0.0 103320
27 january, wed
wed2723:00−27sw22900 0.0 103519
02:00−28sw229111 0.0 103621
05:00−28sw229081 0.0 103723
08:00−28wsw368975 0.0 1038144
11:00−25wnw5118662 0.0 1038822
14:00−24wnw6108981 0.0 1037949
17:00−25wnw51191100 0.1 1038964
20:00−28w4119392 0.1 1041313
28 january, thu
thu2823:00−29sw24899 0.0 104160
02:00−30ssw23804 0.0 104125
05:00−30s33850 0.0 103847
08:00−29s229120 0.0 103736
11:00−24wsw1286100 0.0 1034184
14:00−21w1288100 0.0 1030269
17:00−22wsw1298100 0.1 103090
20:00−22sw2289100 0.1 103134
29 january, fri
fri2923:00−21ssw238898 0.0 103055
02:00−20ssw228895 0.0 102744
05:00−19sw238899 0.0 102463
08:00−18sw228799 0.0 102135
11:00−15wsw1286100 0.0 1017146
14:00−10wsw2678100 0.0 1013417
17:00−12wsw129299 0.0 101257
20:00−13sw2284100 0.0 101226
30 january, sat
sat3023:00−13nnw1197100 0.6 101239
02:00−14w2495100 0.9 1015110
05:00−13w3119386 0.0 1017656
08:00−14wsw389193 0.0 1019280
11:00−11wsw377899 0.0 1018705
14:00−9wsw367899 0.0 1014961
17:00−11sw129081 0.0 101324
20:00−15ssw228856 0.0 101420